Home   Weather   Baltimore   Past weeks

Flag for USA Past Weather in Baltimore, Maryland, USA — Yesterday and Last 2 Weeks

Now
47 °F

Fog.


Feels Like: 47 °F
Forecast: 43 / 50 °F
Wind: No wind

Location: Baltimore-Washington International Airport

Current Time: Jan 21, 2017 at 12:49:07 pm

Latest Report: Jan 21, 2017 at 11:54 am


Visibility: 4 mi

Pressure: 29.89 "Hg

Humidity: 100%

Dew Point: 47 °F

Location of BaltimoreLocation

Past Weather in Baltimore — Graph

°F

Baltimore Temperature Yesterday

Maximum temperature yesterday: 45 °F (at 8:54 pm)
Minimum temperature yesterday: 33 °F (at 12:54 am)
Average temperature yesterday: 41 °F

High & Low Weather Summary for the Past Weeks

 TemperatureHumidityPressure
High70 °F (Jan 12, 2:54 pm)100% (Jan 11, 7:54 pm)30.79 "Hg (Jan 11, 7:54 pm)
Low11 °F (Jan 9, 2:54 am)38% (Jan 8, 1:54 pm)29.87 "Hg (Jan 18, 1:54 am)
Average38 °F74%30.26 "Hg
* Reported Jan 6 11:54 am — Jan 21 11:33 am, Baltimore, Weather by CustomWeather, © 2017

Note: Actual official high and low records may vary slightly from our data, if they occured in-between our weather recording intervals... More about our weather records

Advertising

Baltimore Weather History for the Previous 24 Hours

Scroll right to see more
 ConditionsComfort  
Time TempWeatherWind HumidityBarometerVisibility
11:33 am
Sat, Jan 21
47 °FFog.3 mph100%29.90 "Hg4 mi
10:54 am47 °FFog.3 mph100%29.90 "Hg2 mi
9:54 am46 °FFog.7 mph100%29.92 "Hg1 mi
9:06 am46 °FFog.No wind100%29.89 "Hg1 mi
8:21 am46 °FDrizzle. Fog.5 mph100%29.91 "Hg1 mi
7:54 am46 °FDrizzle. Fog.5 mph100%29.91 "Hg1 mi
6:54 am46 °FDrizzle. Fog.No wind100%29.90 "Hg1 mi
5:54 am46 °FDrizzle. Fog.No wind100%29.90 "Hg1 mi
4:54 am46 °FFog.No wind100%29.90 "Hg1 mi
3:54 am46 °FFog.3 mph100%29.91 "Hg1 mi
2:54 am45 °FFog.No wind100%29.92 "Hg1 mi
1:54 am45 °FFog.3 mph100%29.91 "Hg2 mi
1:29 am45 °FFog.3 mph100%29.90 "Hg2 mi
12:54 am44 °FFog.3 mph100%29.90 "Hg2 mi
11:54 pm
Fri, Jan 20
45 °FFog.No wind100%29.91 "Hg2 mi
11:36 pm44 °FFog.No wind100%29.92 "Hg2 mi
10:54 pm44 °FFog.No wind100%29.91 "Hg3 mi
9:54 pm45 °FDrizzle. Fog.No wind97%29.91 "Hg2 mi
8:54 pm45 °FFog.No wind97%29.90 "Hg5 mi
7:54 pm44 °FOvercast.No wind100%29.90 "Hg7 mi
6:54 pm44 °FOvercast.5 mph96%29.90 "Hg7 mi
6:21 pm44 °FOvercast.3 mph96%29.90 "Hg7 mi
5:54 pm44 °FMostly cloudy.3 mph96%29.90 "Hg7 mi
4:54 pm44 °FFog.6 mph96%29.88 "Hg6 mi
3:54 pm44 °FFog.5 mph96%29.89 "Hg6 mi
3:08 pm44 °FFog.7 mph93%29.89 "Hg6 mi
2:43 pm44 °FFog.9 mph93%29.88 "Hg6 mi
1:54 pm44 °FFog.8 mph89%29.89 "Hg6 mi
1:32 pm44 °FFog.6 mph93%29.89 "Hg5 mi
12:54 pm43 °FLight rain. Fog.5 mph93%29.91 "Hg4 mi
Weather by CustomWeather, © 2017

See weather overviewHow to use our weather pages